[ hide orbit diagram ]
For accurate long-term ephemerides, please instead use our Horizons system.This orbit viewer was implemented using two-body methods, and hence should not be used for determining accurate long-term trajectories (over several years or decades) or planetary encounter circumstances.
Orbital Elements at Epoch 2459000.5 (2020-May-31.0) TDB
Reference: JPL 15 (heliocentric ecliptic J2000)
Element | Value | Uncertainty (1-sigma) | Units |
e | .1589875094691312 | 4.3573e-08 | |
a | 2.529074597405588 | 1.4298e-08 | au |
q | 2.126983325902428 | 1.1002e-07 | au |
i | 3.667036620081886 | 6.1226e-06 | deg |
node | 162.1752433494258 | 9.7431e-05 | deg |
peri | 344.3568010302808 | 0.00010045 | deg |
M | 54.17452491495246 | 2.544e-05 | deg |
tp | 2458779.428123957987 (2019-Oct-22.92812396) | 0.00010364 | TDB |
period | 1469.06457417144 4.02 | 1.2458e-05 3.411e-08 | d yr |
n | .2450538977859717 | 2.0781e-09 | deg/d |
Q | 2.931165868908748 | 1.6571e-08 | au |
|
| | Orbit Determination Parameters
Additional Information
|
[ show covariance matrix ]
Physical Parameter Table
Parameter |
Symbol |
Value |
Units |
Sigma |
Reference |
Notes |
absolute magnitude |
H |
16.9 |
|
n/a |
MPO418562 |
|
|
295166 (2008 FS67) Discovered 2008-Mar-28 by Mt. Lemmon Survey at Mount Lemmon |
Reference: 20110912/Numbers.arc | Last Updated: 2011-09-14 |
|
|